Regional Weather Roundup
Issued by NWS

Home | Current Version | Previous Version | Text Only | Print | Product List | Glossary Off
Versions: 1 2 3 4 5 6 7 8 9 10 11 12 13 14 15 16 17 18 19 20 21 22 23 24 25 26 27 28 29 30 31 32 33 34 35 36 37 38 39 40 41 42 43 44 45 46 47 48 49 50

304
ASUS43 KDTX 250610
RWRMI
MICHIGAN HOURLY REGIONAL WEATHER ROUNDUP
NATIONAL WEATHER SERVICE DETROIT/PONTIAC MI
ISSUED BY NATIONAL WEATHER SERVICE GRAND RAPIDS MI
200 AM EDT THU MAY 25 2017

NOTE: "FAIR" INDICATES FEW OR NO CLOUDS BELOW 12,000 FEET WITH NO
SIGNIFICANT WEATHER AND/OR OBSTRUCTION TO VISIBILITY.

MIZ047>049-052>055-059>063-066>070-074>076-081>083-250700-
SOUTHEAST LOWER MICHIGAN

CITY           SKY/WX    TMP DP  RH WIND       PRES   REMARKS
ADRIAN         CLOUDY    58  57  97 E15G22    29.46S
6HR MIN TEMP:  58; 6HR MAX TEMP:  58; 6HR PCP:  0.05;

ANN ARBOR      LGT RAIN  58  58 100 NE7       29.47F FOG
DETROIT CITY   CLOUDY    58  57  97 E13       29.49F
6HR MIN TEMP:  58; 6HR MAX TEMP:  59; 6HR PCP:  0.17;

DETROIT        CLOUDY    59  57  93 E9        29.48F
6HR MIN TEMP:  59; 6HR MAX TEMP:  60; 6HR PCP:  0.09;

FLINT          CLOUDY    56  54  93 NE9       29.51F
6HR MIN TEMP:  56; 6HR MAX TEMP:  60; 6HR PCP:  0.12;


CITY           SKY/WX    TMP DP  RH WIND       PRES   REMARKS
JACKSON        CLOUDY    59  57  93 NE9       29.47F
6HR MIN TEMP:  58; 6HR MAX TEMP:  60; 6HR PCP:  0.21;

LANSING        CLOUDY    58  54  86 NE12      29.51F FOG
6HR MIN TEMP:  58; 6HR MAX TEMP:  61; 6HR PCP:  0.54;

MT. CLEMENS    CLOUDY    58  58 100 E12       29.49F
6HR MIN TEMP:  58; 6HR MAX TEMP:  60; 6HR PCP:  0.11;

PONTIAC        LGT RAIN  57  55  93 E10       29.49F FOG
6HR MIN TEMP:  57; 6HR MAX TEMP:  60; 6HR PCP:  0.14;

PORT HOPE        N/A     54  51  90 NE14      29.57F
6HR MIN TEMP:  51; 6HR MAX TEMP:  54; 6HR PCP:  0.12;

TRI CITIES     LGT RAIN  56  55  97 NE12      29.57S FOG
6HR MIN TEMP:  53; 6HR MAX TEMP:  56; 6HR PCP:  0.22;

YPSILANTI      CLOUDY    60  59  96 NE12      29.48F
6HR MIN TEMP:  60; 6HR MAX TEMP:  61; 6HR PCP:  0.19;

$$
MIZ043>046-050>051-056>058-064>065-071>073-077>080-250700-
SOUTHWEST LOWER MICHIGAN

CITY           SKY/WX    TMP DP  RH WIND       PRES   REMARKS
BATTLE CREEK   LGT RAIN  57  56  96 NE12      29.48F FOG
6HR MIN TEMP:  57; 6HR MAX TEMP:  61; 6HR PCP:  0.16;

BENTON HARBOR  CLOUDY    57  54  89 CALM      29.50S FOG
6HR MIN TEMP:  56; 6HR MAX TEMP:  60; 6HR PCP:  0.02;

HOLLAND        LGT RAIN  59  54  83 VRB7      29.53F
6HR MIN TEMP:  59; 6HR MAX TEMP:  61; 6HR PCP:  0.01;

GRAND RAPIDS   RAIN      56  56 100 N10       29.53S FOG
6HR MIN TEMP:  56; 6HR MAX TEMP:  60; 6HR PCP:  0.04;

KALAMAZOO      CLOUDY    58  54  86 NE9       29.48F
6HR MIN TEMP:  58; 6HR MAX TEMP:  61; 6HR PCP:  0.12;

MUSKEGON       CLOUDY    59  53  80 NE10      29.56S
6HR MIN TEMP:  59; 6HR MAX TEMP:  66;

$$
MIZ016>042-250700-
NORTHERN LOWER MICHIGAN

CITY           SKY/WX    TMP DP  RH WIND       PRES   REMARKS
ALPENA         CLOUDY    57  51  80 E10       29.66S
6HR MIN TEMP:  56; 6HR MAX TEMP:  59; 6HR PCP: TRACE;

GAYLORD        CLOUDY    54  49  83 NE9       29.66F
6HR MIN TEMP:  54; 6HR MAX TEMP:  59; 6HR PCP: TRACE;

HOUGHTON LAKE  LGT RAIN  55  50  83 NE10      29.63S
6HR MIN TEMP:  55; 6HR MAX TEMP:  61; 6HR PCP: TRACE;

MANISTEE       CLOUDY    55  51  86 E8        29.60F
PELLSTON       CLOUDY    56  50  80 NE8       29.68F
6HR MIN TEMP:  54; 6HR MAX TEMP:  57;

TRAVERSE CITY  CLOUDY    52  48  86 N6        29.63S
6HR MIN TEMP:  51; 6HR MAX TEMP:  57;

$$
MIZ007>008-015-250700-
EASTERN UPPER MICHIGAN

CITY           SKY/WX    TMP DP  RH WIND       PRES   REMARKS
KINROSS        CLOUDY    54  50  86 NE7       29.71F
6HR MIN TEMP:  52; 6HR MAX TEMP:  58;

S. S. MARIE    CLOUDY    57  49  74 NE6       29.71F
6HR MIN TEMP:  57; 6HR MAX TEMP:  60;

$$
MIZ004>006-011>014-085-250700-
CENTRAL UPPER MICHIGAN

CITY           SKY/WX    TMP DP  RH WIND       PRES   REMARKS
ESCANABA       CLOUDY    50  46  86 N7        29.71F
6HR MIN TEMP:  50; 6HR MAX TEMP:  55;

MENOMINEE      CLOUDY    51  48  89 N7        29.70S
6HR MIN TEMP:  50; 6HR MAX TEMP:  52; 6HR PCP: TRACE;

$$
MIZ001>003-009>011-084-250700-
WESTERN UPPER MICHIGAN

CITY           SKY/WX    TMP DP  RH WIND       PRES   REMARKS
IRON MOUNTAIN  CLOUDY    49  44  83 N6        29.71F
6HR MIN TEMP:  49; 6HR MAX TEMP:  55; 6HR PCP: TRACE;

HOUGHTON       CLEAR     43  40  89 CALM      29.75S
6HR MIN TEMP:  43; 6HR MAX TEMP:  51;

COPPER HARBOR    N/A     43  40  89 W3        29.76F
6HR MIN TEMP:  42; 6HR MAX TEMP:  54;

IRONWOOD       CLEAR     40  40 100 CALM      29.75F FOG
6HR MIN TEMP:  39; 6HR MAX TEMP:  56; 6HR PCP:  0.01;

$$

ABBREVIATIONS USED IN REMARKS
   TC - TEMPERATURE IN CELSIUS
  WCI - WIND CHILL INDEX
   HX - HEAT INDEX
  VSB - VISIBILITY





USA.gov is the U.S. government's official web portal to all federal, state and local government web resources and services.